Home   Weather   North Fairfield   Past weeks
Flag for USA

Past Weather in North Fairfield, Ohio, USA — Yesterday and Last 2 Weeks

Now
36 °F

Sunny.


Feels Like: 27 °F
Forecast: 49 / 30 °F
Wind: 14 mph from Southwest

Location: Lorain County Regional Airport

Current Time: Dec 8, 2019 at 10:45:39 am

Latest Report: Dec 8, 2019 at 9:53 am


Visibility: 10 mi

Pressure: 30.16 "Hg

Humidity: 59%

Dew Point: 23 °F

Location of North FairfieldLocation

Past Weather in North Fairfield — Graph

°F

North Fairfield Temperature Yesterday

Maximum temperature yesterday: 37 °F (at 2:53 pm)
Minimum temperature yesterday: 25 °F (at 6:53 am)
Average temperature yesterday: 32 °F

High & Low Weather Summary for the Past Weeks

 TemperatureHumidityPressure
High59 °F (Nov 26, 2:53 pm)85% (Dec 2, 10:07 am)30.47 "Hg (Dec 2, 10:07 am)
Low25 °F (Dec 7, 6:53 am)48% (Nov 26, 2:53 pm)29.34 "Hg (Dec 1, 1:53 pm)
Average38 °F69%29.89 "Hg
* Reported Nov 23 8:53 am — Dec 8 8:53 am, North Fairfield. Weather by CustomWeather, © 2019

Note: Actual official high and low records may vary slightly from our data, if they occured in-between our weather recording intervals... More about our weather records

North Fairfield Weather History for the Previous 24 Hours

Scroll right to see more
 ConditionsComfort  
Time TempWeatherWind HumidityBarometerVisibility
8:53 am
Sun, Dec 8
32 °FSunny.10 mph59%30.17 "Hg10 mi
7:53 am31 °FSunny.16 mph59%30.17 "Hg10 mi
6:53 am30 °FClear.12 mph61%30.20 "Hg10 mi
5:53 am31 °FClear.12 mph59%30.22 "Hg10 mi
4:53 am30 °FClear.9 mph61%30.24 "Hg10 mi
3:53 am30 °FClear.9 mph61%30.27 "Hg10 mi
2:53 am31 °FClear.10 mph59%30.29 "Hg10 mi
1:53 am31 °FClear.9 mph59%30.30 "Hg10 mi
12:53 am31 °FClear.9 mph61%30.32 "Hg10 mi
11:53 pm
Sat, Dec 7
30 °FClear.9 mph64%30.34 "Hg10 mi
10:53 pm30 °FClear.6 mph64%30.35 "Hg10 mi
9:53 pm31 °FClear.5 mph64%30.37 "Hg10 mi
8:53 pm32 °FPassing clouds.6 mph61%30.37 "Hg10 mi
7:53 pm34 °FOvercast.6 mph59%30.40 "Hg10 mi
6:53 pm33 °FOvercast.7 mph58%30.40 "Hg10 mi
5:53 pm34 °FOvercast.5 mph56%30.41 "Hg10 mi
4:53 pm36 °FOvercast.3 mph52%30.41 "Hg10 mi
3:53 pm37 °FSunny.8 mph50%30.41 "Hg10 mi
2:53 pm37 °FPartly sunny.3 mph50%30.42 "Hg10 mi
1:53 pm36 °FMore clouds than sun.8 mph54%30.42 "Hg10 mi
12:53 pm36 °FPartly sunny.6 mph54%30.43 "Hg10 mi
12:06 pm35 °FScattered clouds.7 mph56%30.43 "Hg10 mi
11:53 am35 °FPartly sunny.9 mph56%30.46 "Hg10 mi
10:53 am33 °FScattered clouds.5 mph58%30.47 "Hg10 mi
Weather by CustomWeather, © 2019

See weather overview

Advertising